Brumowski Air Base LOXT

Flugplatz Daten

Name: Brumowski Air Base

Ident: LOXT

Lat: 48,31669998

Long: 16,11669922

Platzhöhe: 574 ft

IataCode:

City: Langenlebarn

Metar

2022/08/14 05:50
LOXT 140550Z 24006KT 25KM FEW012SC BKN025SC 21/17 Q1011 RMK WIND INFO EST/OVC

Taf

Gewünschte Webcam nicht vorhanden? Dann fügen Sie eine hinzu. Sie wird dann so schnell wie möglich freigeschaltet
Url: Title: